Location: Edmonton
(53.5500°N, 113.5000°W)
Time: 15:08:53
(UTC-07:00)

Daily predictions for brighter satellites

Satellite Brightness Start Highest point End
(mag) Time Altitude Azimuth Time Altitude Azimuth Time Altitude Azimuth
ERS-2 3.0 18:21:23 10° ESE 18:24:35 29° ENE 18:27:49 10° N
Cosmos 773 Rocket 4.3 18:19:35 10° SSW 18:24:53 74° WNW 18:30:13 10° NNE
Cosmos 1782 3.9 18:22:28 10° NNW 18:26:23 51° W 18:30:14 10° S
EO 1 Del DPAF 4.4 18:24:28 10° NE 18:27:32 22° E 18:30:34 10° SSE
Lacrosse 4 Rocket 4.1 18:24:31 10° WNW 18:27:58 25° WSW 18:31:29 10° S
NOSS 3-2 (A) 4.4 18:24:21 10° S 18:29:19 27° ESE 18:34:42 10° ENE
FREGAT/IRIS 3.8 18:27:35 10° ESE 18:30:00 23° ENE 18:32:25 10° NNE
Cosmos 2233 Rocket 4.1 18:24:34 10° N 18:30:52 62° ENE 18:37:03 10° SSE
ATLAS 3B R/B 3.2 18:24:30 10° SSW 18:31:16 46° ESE 18:37:48 10° NE
Cosmos 2016 Rocket 4.5 18:25:31 10° NNW 18:31:53 72° W 18:38:10 10° S
Meteor 1-27 Rocket 3.9 18:26:22 10° NNW 18:32:15 86° ENE 18:38:10 10° SSE
USA 116 4.5 18:29:05 10° NNE 18:34:30 78° ESE 18:39:47 10° S
Cosmos 1980 3.8 18:29:50 10° NNW 18:35:35 87° ENE 18:41:17 10° SSE
Cosmos 1869 Rocket 3.5 18:32:01 10° S 18:36:19 71° E 18:40:39 10° NNE
Lacrosse 5 2.8 18:32:11 10° WNW 18:37:06 51° SW 18:41:58 10° SE
Iridium 2 3.7 18:36:21 10° N 18:40:14 89° W 18:44:04 10° S
Cosmos 2221 Rocket 3.9 18:36:47 10° NNW 18:41:12 72° W 18:45:35 10° S
Cosmos 1633 4.4 18:40:54 10° ESE 18:42:23 12° E 18:43:52 10° ENE
USA 238 DEB 3.9 18:36:54 10° SSW 18:43:33 53° SE 18:50:19 10° NE
USA 238 4.0 18:37:00 10° SSW 18:43:39 53° SE 18:50:25 10° NE
MONITOR-E 4.3 18:40:39 10° S 18:43:40 78° WSW 18:46:43 10° NNW
Cosmos 724 4.4 18:38:10 10° SSW 18:43:52 60° SE 18:49:34 10° NE
Cosmos 1464 Rocket 4.4 18:38:30 10° N 18:44:14 38° ENE 18:49:54 10° SE
FengYun 1-2 T 4.3 18:39:47 10° SE 18:45:10 58° ENE 18:50:33 10° N
Landsat 4 4.1 18:43:13 10° NNE 18:46:46 39° E 18:50:17 10° S
MOS 1 4.5 18:42:19 10° SSE 18:47:59 82° WSW 18:53:44 10° NNW
CZ-4 R/B 3.2 18:44:15 10° SSW 18:48:00 36° W 18:51:44 10° NNW
Cosmos 2082 Rocket 4.4 18:47:16 10° NW 18:50:40 16° NNW 18:54:05 10° NNE
Cosmos 1378 Rocket 4.3 18:47:37 10° N 18:51:33 31° ENE 18:55:28 10° SE
Cosmos 1862 3.2 18:48:07 10° S 18:52:05 80° E 18:56:05 10° NNE
SJ-6B 3.4 18:50:48 10° SE 18:54:15 34° ENE 18:57:46 10° N
Envisat 3.6 18:50:14 10° SE 18:54:49 35° ENE 18:59:25 10° N
ALOS 3.0 18:52:13 10° S 18:56:51 60° W 19:01:29 10° NNW
Okean 1 4.4 18:56:12 10° N 18:59:35 25° ENE 19:02:47 11° ESE
COSMO-SKYMED 1 2.5 18:55:30 10° NNE 18:59:53 86° ESE 19:04:14 10° SSW
Cosmos 44 3.3 18:55:48 10° NW 19:00:42 77° NE 19:05:52 10° SE
HJ-1C 3.8 18:58:56 10° SE 19:02:11 42° ENE 19:05:27 10° N
Cosmos 2285 Rocket 4.1 18:59:08 10° S 19:05:17 56° ESE 19:11:31 10° NNE
H-2A R/B 4.0 19:05:16 11° NE 19:06:26 12° NE 19:08:19 10° NNE
Cosmos 1943 4.4 19:01:55 10° NNW 19:06:32 25° NE 19:09:37 16° ENE
USA 215 4.1 19:03:15 14° ENE 19:07:51 29° SE 19:13:24 10° S
SeaSat 1 2.4 19:04:20 10° SE 19:09:16 82° ENE 19:14:14 10° NNW
Cosmos 2219 Rocket 3.9 19:04:10 10° NW 19:09:19 36° WSW 19:14:25 10° S
CZ-2C R/B 4.3 19:10:23 10° N 19:14:49 59° WNW 19:19:11 10° SSW
Cosmos 2034 Rocket 4.2 19:11:28 10° N 19:17:40 49° ENE 19:23:48 10° SE
NOSS 3-2 (C) 3.9 19:14:41 10° S 19:20:18 41° ESE 19:25:34 14° ENE
Cosmos 2237 Rocket 3.1 19:15:16 10° NW 19:20:44 52° WSW 19:26:09 10° S
Cosmos 2219 3.2 19:16:15 10° SSW 19:21:53 84° WNW 19:27:36 10° NNE
SL-16 R/B 2.1 19:16:48 10° NNW 19:22:32 82° ENE 19:28:12 10° SE
H-2A R/B 3.3 19:20:26 10° S 19:24:19 61° W 19:28:12 10° NNW
CZ-4C R/B 3.3 19:18:29 10° NW 19:24:37 43° NNE 19:29:16 21° E
SPOT 3 Rocket 4.4 19:19:58 10° S 19:25:03 53° W 19:30:12 10° NNW
MTI 4.3 19:22:19 10° N 19:25:29 61° WNW 19:28:37 10° SSW
Cosmos 2227 Rocket 2.3 19:20:45 10° S 19:26:11 52° ESE 19:31:40 10° NE
Cosmos 1674 Rocket 3.6 19:24:44 10° NNW 19:29:08 82° W 19:33:28 10° S
Meteor 1-18 Rocket 4.1 19:24:07 10° N 19:29:47 72° ENE 19:35:21 10° SSE
Cosmos 1452 Rocket 3.6 19:25:18 10° NNW 19:30:36 83° WSW 19:35:52 10° SSE
CZ-2D R/B 3.2 19:31:06 10° SSE 19:34:59 73° ENE 19:38:54 10° N
Meteor 1-20 Rocket 4.4 19:30:12 10° SSE 19:35:38 47° E 19:41:11 10° NNE
Cosmos 405 2.8 19:34:20 10° S 19:37:48 72° E 19:41:20 10° NNE
Cosmos 1812 3.1 19:34:37 10° NNW 19:38:30 66° W 19:42:19 10° S
Cosmos 1603 4.0 19:34:54 10° NNW 19:40:26 49° NE 19:43:08 28° ESE
Cosmos 2297 Rocket 2.2 19:35:08 10° SSW 19:40:39 57° ESE 19:46:12 10° NE
MINOTAUR IV R/B 4.5 19:36:35 10° SSW 19:41:04 82° ESE 19:45:29 11° NNE
Cosmos 1908 Rocket 3.8 19:37:04 10° SSE 19:41:22 47° E 19:45:40 10° NNE
Spot 2 Rocket 3.7 19:42:05 22° SE 19:45:05 50° ENE 19:50:00 10° N
USA 267 3.3 19:40:29 20° ESE 19:45:18 79° SSW 19:51:53 10° WNW
ATLAS CENTAUR R/B 2.5 19:42:12 10° NNW 19:45:39 28° NNE 19:46:17 26° NE
Resurs 1-3 3.6 19:43:11 23° SE 19:45:43 55° ENE 19:50:02 10° N
Cosmos 1939 Rocket 3.1 19:46:22 34° ESE 19:47:45 51° ENE 19:51:46 10° N
Meteor 1-19 Rocket 4.3 19:44:33 10° N 19:49:59 53° ENE 19:53:15 23° SE
YAOGAN 6 2.8 19:50:02 47° ENE 19:50:02 47° ENE 19:53:32 10° N
Resurs 01 Rocket 1.6 19:47:32 24° SE 19:50:05 61° ENE 19:54:28 10° N
Cosmos 1733 Rocket 3.3 19:46:37 10° SSW 19:50:55 69° WNW 19:55:15 10° N
USA 186 1.7 19:51:31 65° ESE 19:51:44 68° ENE 19:55:04 10° N
Cosmos 1420 Rocket 4.3 19:48:52 10° NNW 19:54:06 68° WSW 19:59:21 10° SSE
Cosmos 921 Rocket 3.0 19:50:40 10° NNW 19:55:14 79° ENE 19:57:35 28° SSE
Meteor 1-25 Rocket 4.1 19:50:09 10° S 19:55:38 69° E 20:01:12 10° NNE
ERS-1 Rocket 4.3 19:56:32 23° NE 19:56:32 23° NE 19:59:55 10° N
CENTAUR R/B 3.1 19:50:43 10° S 19:56:11 34° ESE 19:57:10 32° E
Iridium 4 Rocket 3.4 19:52:48 10° N 19:58:05 82° W 20:02:50 10° S
Cosmos 44 Rocket 3.9 19:53:16 10° NW 19:58:11 59° SW 20:01:50 18° SSE
ERS-2 4.0 19:54:53 10° SSW 19:58:12 31° W 20:01:34 10° NNW
Okean 3 4.4 19:57:14 10° NNW 20:01:17 48° W 20:05:17 10° SSW
EO 1 Del DPAF 4.5 19:58:16 10° N 20:01:56 43° WNW 20:05:33 10° SW
Cosmos 1975 Rocket 2.9 19:57:38 10° N 20:02:04 71° ENE 20:03:54 34° SSE
Meteor 2-4 Rocket 3.9 19:59:22 10° N 20:05:09 52° ENE 20:06:59 38° ESE
Cosmos 158 Rocket 3.9 20:00:46 10° S 20:05:30 53° ESE 20:06:37 43° ENE
Cosmos 2082 3.5 20:00:43 10° SSW 20:06:19 77° ESE 20:11:30 13° NE
SJ-11-01 4.2 20:06:16 41° SE 20:07:50 66° ENE 20:12:33 10° N
Thor Agena Rocket 3.4 20:07:38 10° NNE 20:12:48 79° ESE 20:17:53 10° SSW
Tsikada Rocket 4.0 20:08:59 10° S 20:15:15 59° E 20:21:33 10° NNE
Cosmos 1633 2.8 20:13:15 10° SSW 20:16:47 68° WNW 20:20:22 10° N
NOSS 3-2 (A) 3.5 20:13:15 10° SW 20:19:24 86° NW 20:23:49 24° NE
ATLAS 3B R/B 3.0 20:14:46 10° WSW 20:21:52 65° NW 20:26:49 20° NE
DNEPR-1 R/B 3.4 20:19:03 10° SW 20:23:16 88° SE 20:23:34 77° NE
Cosmos 2084 Rocket 3.3 20:19:32 10° SW 20:23:50 87° NW 20:23:51 87° NNW
Cosmos 468 4.3 20:21:15 10° SSW 20:26:29 72° ESE 20:28:09 44° NE
Sich 1 Rocket 3.5 20:22:06 10° SSW 20:26:36 85° W 20:31:06 10° N
CRYOSAT 2 4.5 20:21:56 10° N 20:26:50 76° W 20:31:42 10° SSW
USA 32 4.1 20:24:00 10° S 20:29:15 77° W 20:34:31 10° N
Envisat 4.1 20:28:57 10° S 20:33:47 44° W 20:38:39 10° NNW
USA 238 DEB 4.2 20:27:43 10° WSW 20:34:34 59° NNW 20:39:07 23° NE
USA 238 4.2 20:27:49 10° WSW 20:34:40 60° NNW 20:39:13 23° NE
Cosmos 2082 Rocket 4.3 20:34:24 10° NNW 20:37:15 14° N 20:38:52 12° NNE
SPOT 5 4.4 20:39:26 25° NNE 20:39:26 25° NNE 20:42:16 10° N
Terra 4.1 20:41:26 12° NNE 20:41:26 12° NNE 20:42:04 10° NNE
Cosmos 1110 Rocket 4.0 20:36:21 10° NNW 20:41:39 83° WSW 20:42:18 68° S
Meteor 1-23 Rocket 4.2 20:37:42 10° N 20:43:23 65° ENE 20:43:23 65° ENE
ARGOS 3.5 20:44:36 52° NE 20:44:36 52° NE 20:49:10 10° N
H-2A R/B 2.9 20:45:54 38° NNE 20:45:54 38° NNE 20:49:46 10° N
ARGOS Delta rocket 4.4 20:41:07 10° N 20:46:08 58° WNW 20:50:51 10° SSW
Meteor 1-13 Rocket 4.3 20:41:27 10° NNW 20:47:02 72° W 20:48:51 43° S
NOAA 11 4.1 20:49:20 65° S 20:50:09 82° WSW 20:55:37 10° NNW
Cosmos 1943 3.0 20:45:46 10° NNW 20:51:28 81° ENE 20:51:28 81° ENE
USA 215 3.1 20:50:36 62° E 20:51:37 73° SSE 20:58:09 10° SW
Cosmos 2279 Rocket 4.0 20:59:04 10° N 21:04:38 66° NNE 21:04:38 66° NNE
SL-16 R/B 4.4 21:01:47 10° NW 21:06:01 22° WSW 21:10:13 10° SSW
Cosmos 2227 Rocket 3.4 21:05:09 10° WSW 21:10:27 40° NW 21:14:47 15° NNE
NOSS 3-2 (C) 3.8 21:04:43 10° WSW 21:10:56 67° NW 21:13:04 44° NNE
CZ-4C R/B 2.6 21:07:06 10° NW 21:13:57 89° NE 21:14:29 79° SE
Cosmos 1634 Rocket 4.3 21:13:25 10° NNW 21:19:31 63° W 21:20:34 54° SW
Cosmos 2297 Rocket 3.5 21:19:45 10° WSW 21:25:00 37° NW 21:28:34 19° NNE
ATLAS CENTAUR R/B 3.6 21:20:58 10° NW 21:22:33 23° NW 21:22:33 23° NW
Resurs 01 Rocket 4.0 21:25:05 16° WSW 21:26:57 20° W 21:30:16 10° NW
USA 267 4.3 21:27:51 32° SSW 21:28:57 34° SW 21:34:49 10° WNW
ERS-1 Rocket 4.3 21:36:31 35° NNW 21:36:31 35° NNW 21:39:25 10° NNW
CENTAUR R/B 3.2 21:39:53 10° SW 21:44:27 51° WSW 21:44:27 51° WSW
ATLAS 3B R/B 3.8 22:07:17 10° WNW 22:13:42 37° N 22:14:05 37° N
Cosmos 2082 Rocket 4.4 22:18:40 10° NNW 22:20:43 19° N 22:20:43 19° N
H-2A R/B 4.1 22:26:31 25° NW 22:26:31 25° NW 22:29:08 10° NNW
CZ-4C R/B 4.4 22:56:02 10° WNW 22:59:40 26° W 22:59:40 26° W
